Centralia, IL

5:41 AM CST on February 10, 2016 (GMT -0600)
Centralia Municipal

Weather History for KENL - November, 2011

Change the Weather History Date:

Thursday, November 10, 2011

  Actual Average (KSLO) Record (KSLO)
Temperature  
Mean Temperature 42 °F -  
Max Temperature 48 °F 55 °F 74 °F (1964)
Min Temperature 35 °F 35 °F 18 °F (1960)
Degree Days  
Heating Degree Days 24    
Moisture  
Dew Point 26 °F    
Average Humidity 59    
Maximum Humidity 87    
Minimum Humidity 30    
Precipitation  
Precipitation 0.00 in - - ()
Sea Level Pressure  
Sea Level Pressure 30.15 in    
Wind  
Wind Speed 10 mph (West)    
Max Wind Speed 23 mph    
Max Gust Speed 31 mph    
Visibility 10 miles    
Events      
Averages and records for this station are not official NWS values.
T = Trace of Precipitation, MM = Missing Value Source: NWS Daily Summary

Daily Weather History Graph

Daily Weather History Graph

Search for Another Location

Airport or City:

Trip Planner

Search our weather history database for the weather conditions in past years. The results will help you decide how hot, cold, wet, or windy it might be!

Date:

Astronomy

Nov. 10, 2011 Rise Set
Actual Time 6:32 AM CST 4:47 PM CST
Civil Twilight 6:04 AM CST 5:15 PM CST
Nautical Twilight 5:32 AM CST 5:47 PM CST
Astronomical Twilight 5:01 AM CST 6:18 PM CST
Moon 4:36 PM CST 6:24 AM CST
Length of Visible Light 11h 11m
Length of Day
10h 15m
Full, 100% of the Moon is Illuminated
Nov 10
Full
Nov 10
Full
Nov 18
Last Quarter
Nov 25
New
Dec 2
First Quarter

Hourly Weather History & Observations

Time (CST) Temp. Windchill Dew Point Humidity Pressure Visibility Wind Dir Wind Speed Gust Speed Precip Events Conditions
12:15 AM 37.4 °F 32.1 °F 32.0 °F 81% 30.16 in 10.0 mi WSW 6.9 mph - N/A   Clear
12:35 AM 37.4 °F 32.8 °F 32.0 °F 81% 30.16 in 10.0 mi WSW 5.8 mph - N/A   Clear
12:55 AM 35.6 °F 29.9 °F 32.0 °F 87% 30.16 in 10.0 mi WSW 6.9 mph - N/A   Clear
1:15 AM 35.6 °F 30.7 °F 32.0 °F 87% 30.16 in 10.0 mi WSW 5.8 mph - N/A   Clear
1:35 AM 35.6 °F 29.9 °F 32.0 °F 87% 30.16 in 10.0 mi WSW 6.9 mph - N/A   Clear
1:55 AM 35.6 °F 30.7 °F 32.0 °F 87% 30.15 in 10.0 mi WSW 5.8 mph - N/A   Clear
2:15 AM 35.6 °F 29.9 °F 32.0 °F 87% 30.16 in 10.0 mi WSW 6.9 mph - N/A   Clear
2:35 AM 35.6 °F 30.7 °F 32.0 °F 87% 30.16 in 10.0 mi WSW 5.8 mph - N/A   Clear
2:55 AM 35.6 °F 30.7 °F 30.2 °F 81% 30.16 in 10.0 mi WSW 5.8 mph - N/A   Clear
3:15 AM 35.6 °F 31.7 °F 30.2 °F 81% 30.15 in 10.0 mi WSW 4.6 mph - N/A   Clear
3:35 AM 35.6 °F 30.7 °F 30.2 °F 81% 30.15 in 10.0 mi West 5.8 mph - N/A   Clear
3:55 AM 35.6 °F 29.9 °F 30.2 °F 81% 30.15 in 10.0 mi West 6.9 mph - N/A   Clear
4:15 AM 35.6 °F 29.9 °F 30.2 °F 81% 30.15 in 10.0 mi West 6.9 mph - N/A   Clear
4:35 AM 35.6 °F 29.2 °F 30.2 °F 81% 30.15 in 10.0 mi West 8.1 mph - N/A   Clear
4:55 AM 35.6 °F 28.6 °F 30.2 °F 81% 30.15 in 10.0 mi West 9.2 mph - N/A   Clear
5:15 AM 35.6 °F 29.2 °F 28.4 °F 75% 30.15 in 10.0 mi WSW 8.1 mph - N/A   Clear
5:35 AM 35.6 °F 29.9 °F 28.4 °F 75% 30.15 in 10.0 mi WSW 6.9 mph - N/A   Clear
5:55 AM 35.6 °F 29.2 °F 28.4 °F 75% 30.14 in 10.0 mi West 8.1 mph - N/A   Clear
6:15 AM 35.6 °F 29.2 °F 28.4 °F 75% 30.15 in 10.0 mi WSW 8.1 mph - N/A   Clear
6:35 AM 35.6 °F 29.9 °F 28.4 °F 75% 30.15 in 10.0 mi WSW 6.9 mph - N/A   Clear
6:55 AM 35.6 °F 29.2 °F 28.4 °F 75% 30.15 in 10.0 mi WSW 8.1 mph - N/A   Clear
7:15 AM 35.6 °F 29.2 °F 28.4 °F 75% 30.16 in 10.0 mi WSW 8.1 mph - N/A   Clear
7:35 AM 35.6 °F 29.2 °F 30.2 °F 81% 30.17 in 10.0 mi West 8.1 mph - N/A   Clear
7:55 AM 37.4 °F 32.1 °F 30.2 °F 75% 30.17 in 10.0 mi West 6.9 mph - N/A   Clear
8:15 AM 39.2 °F 33.0 °F 30.2 °F 70% 30.17 in 10.0 mi West 9.2 mph - N/A   Clear
8:35 AM 41.0 °F 33.1 °F 30.2 °F 65% 30.17 in 10.0 mi West 15.0 mph 21.9 mph N/A   Clear
8:55 AM 41.0 °F 33.1 °F 28.4 °F 61% 30.17 in 10.0 mi West 15.0 mph 19.6 mph N/A   Clear
9:15 AM 42.8 °F 35.8 °F 28.4 °F 57% 30.16 in 10.0 mi West 13.8 mph 21.9 mph N/A   Clear
9:35 AM 42.8 °F 36.2 °F 28.4 °F 57% 30.16 in 10.0 mi West 12.7 mph - N/A   Clear
9:55 AM 44.6 °F 36.4 °F 26.6 °F 49% 30.17 in 10.0 mi West 20.7 mph 26.5 mph N/A   Clear
10:15 AM 44.6 °F 35.9 °F 26.6 °F 49% 30.17 in 10.0 mi WNW 23.0 mph 26.5 mph N/A   Clear
10:35 AM 46.4 °F 39.5 °F 26.6 °F 46% 30.16 in 10.0 mi WNW 17.3 mph 28.8 mph N/A   Clear
10:55 AM 46.4 °F 39.0 °F 24.8 °F 43% 30.16 in 10.0 mi WNW 19.6 mph 25.3 mph N/A   Clear
11:15 AM 46.4 °F 39.0 °F 23.0 °F 40% 30.16 in 10.0 mi West 19.6 mph 28.8 mph N/A   Clear
11:35 AM 46.4 °F 38.7 °F 21.2 °F 37% 30.16 in 10.0 mi West 20.7 mph 28.8 mph N/A   Clear
11:55 AM 46.4 °F 38.3 °F 21.2 °F 37% 30.16 in 10.0 mi WNW 23.0 mph 28.8 mph N/A   Clear
12:15 PM 46.4 °F 39.2 °F 21.2 °F 37% 30.15 in 10.0 mi West 18.4 mph 26.5 mph N/A   Clear
12:35 PM 48.2 °F - 23.0 °F 37% 30.14 in 10.0 mi West 19.6 mph 25.3 mph N/A   Scattered Clouds
12:55 PM 48.2 °F - 23.0 °F 37% 30.13 in 10.0 mi WNW 13.8 mph 25.3 mph N/A   Scattered Clouds
1:15 PM 48.2 °F - 21.2 °F 34% 30.13 in 10.0 mi West 16.1 mph 24.2 mph N/A   Scattered Clouds
1:35 PM 48.2 °F - 19.4 °F 32% 30.12 in 10.0 mi West 21.9 mph 31.1 mph N/A   Scattered Clouds
1:55 PM 48.2 °F - 19.4 °F 32% 30.13 in 10.0 mi WNW 19.6 mph 26.5 mph N/A   Scattered Clouds
2:15 PM 48.2 °F - 19.4 °F 32% 30.12 in 10.0 mi West 12.7 mph 27.6 mph N/A   Scattered Clouds
2:35 PM 48.2 °F - 19.4 °F 32% 30.13 in 10.0 mi West 16.1 mph 25.3 mph N/A   Scattered Clouds
2:55 PM 48.2 °F - 19.4 °F 32% 30.12 in 10.0 mi West 17.3 mph 28.8 mph N/A   Scattered Clouds
3:15 PM 48.2 °F - 17.6 °F 30% 30.12 in 10.0 mi WNW 18.4 mph 26.5 mph N/A   Clear
3:35 PM 46.4 °F 39.8 °F 17.6 °F 32% 30.13 in 10.0 mi West 16.1 mph 25.3 mph N/A   Clear
3:55 PM 46.4 °F 40.7 °F 19.4 °F 34% 30.13 in 10.0 mi West 12.7 mph 20.7 mph N/A   Clear
4:15 PM 46.4 °F 40.1 °F 17.6 °F 32% 30.13 in 10.0 mi West 15.0 mph 20.7 mph N/A   Clear
4:35 PM 44.6 °F 38.4 °F 17.6 °F 34% 30.13 in 10.0 mi West 12.7 mph 18.4 mph N/A   Clear
4:55 PM 44.6 °F 40.2 °F 19.4 °F 37% 30.13 in 10.0 mi WNW 8.1 mph - N/A   Clear
5:15 PM 42.8 °F 39.3 °F 21.2 °F 42% 30.14 in 10.0 mi WNW 5.8 mph - N/A   Clear
5:35 PM 41.0 °F 38.0 °F 23.0 °F 49% 30.14 in 10.0 mi NW 4.6 mph - N/A   Clear
5:55 PM 41.0 °F 36.4 °F 24.8 °F 53% 30.15 in 10.0 mi NW 6.9 mph - N/A   Clear
6:15 PM 39.2 °F 35.9 °F 24.8 °F 56% 30.15 in 10.0 mi WNW 4.6 mph - N/A   Clear
6:35 PM 39.2 °F 35.9 °F 24.8 °F 56% 30.15 in 10.0 mi WNW 4.6 mph - N/A   Clear
6:55 PM 39.2 °F 35.9 °F 24.8 °F 56% 30.15 in 10.0 mi WNW 4.6 mph - N/A   Clear
7:15 PM 39.2 °F 37.0 °F 24.8 °F 56% 30.15 in 10.0 mi West 3.5 mph - N/A   Clear
7:35 PM 37.4 °F 33.8 °F 24.8 °F 60% 30.15 in 10.0 mi West 4.6 mph - N/A   Clear
7:55 PM 33.8 °F 29.6 °F 24.8 °F 70% 30.15 in 10.0 mi West 4.6 mph - N/A   Clear
8:15 PM 35.6 °F - 24.8 °F 65% 30.15 in 10.0 mi Calm Calm - N/A   Clear
8:35 PM 33.8 °F 29.6 °F 24.8 °F 70% 30.16 in 10.0 mi WSW 4.6 mph - N/A   Clear
8:55 PM 32.0 °F - 26.6 °F 80% 30.16 in 10.0 mi Calm Calm - N/A   Clear
9:15 PM 32.0 °F - 26.6 °F 80% 30.16 in 10.0 mi Calm Calm - N/A   Clear
9:35 PM 32.0 °F - 26.6 °F 80% 30.16 in 7.0 mi Calm Calm - N/A   Clear
9:55 PM 32.0 °F - 26.6 °F 80% 30.16 in 10.0 mi Calm Calm - N/A   Clear
10:15 PM 32.0 °F 28.7 °F 26.6 °F 80% 30.16 in 10.0 mi SW 3.5 mph - N/A   Clear
10:35 PM 32.0 °F 27.5 °F 23.0 °F 69% 30.16 in 10.0 mi WSW 4.6 mph - N/A   Clear
10:55 PM 30.2 °F 25.4 °F 24.8 °F 80% 30.16 in 10.0 mi West 4.6 mph - N/A   Clear
11:15 PM 30.2 °F 26.7 °F 24.8 °F 80% 30.15 in 10.0 mi West 3.5 mph - N/A   Clear
11:35 PM 28.4 °F 22.2 °F 24.8 °F 86% 30.16 in 10.0 mi West 5.8 mph - N/A   Clear
11:55 PM 30.2 °F 25.4 °F 24.8 °F 80% 30.16 in 10.0 mi West 4.6 mph - N/A   Clear